COSMOS 2337

Satellite information

Favourite Embed

Satellite Type and Status

PAYLOADIN ORBIT

Key statistics

Satellite COSMOS 2337 at a glance.

Uptime

10482

Days in orbit

Revolutions

≈ 12.6

Per day

Orbit

LEO

Low Earth Orbit

Inclination

82.6

Latest

Satellite identification and parameters

Extended collection of information and parameters for COSMOS 2337.

Object identification

Identified? True

Debris? False

Object name: COSMOS 2337

International designator: 1997-006A

Object number (NORAD): 24725

Object ID (CCSDS): 24725

Country: COMMONWEALTH OF INDEPENDENT STATES (CIS)

Current information (Y/N): Y

RCS size: MEDIUM

Orbital parameters

Period: 114.221 minutes

Inclination: 82.6082 deg

SMA: 7798.117 km

Apoapsis: 1426.328 km

Periapsis: 1413.637 km

RAAN: 67.9977 deg

Eccentricy: 0.00081375

Argument of periapsis: 291.6933 deg

Mean anomaly: 68.329 deg

Mean motion: 12.60718451 rev/day

Mean motion (dot): 0.00000035 rev/day2

B* drag term: 0.00013858823 1/REarth

Two-line elements (TLE)

Creation date: Oct. 27, 2025, 2:46 a.m.

Reference frame: TEME

Reference center: EARTH

Epoch: Oct. 26, 2025, 9:12 p.m. UTC

TLE line 0: 0 COSMOS 2337

TLE line 1: 1 24725U 97006A 25299.88337376 .00000035 00000-0 13859-3 0 9991

TLE line 2: 2 24725 82.6082 67.9977 0008137 291.6933 68.3290 12.60718451320452

Live tracking on map

Real-time ground track for satellite COSMOS 2337.

In-orbit conjunctions

There are no conjunctions computed for COSMOS 2337, at the moment. Check back to stay up to date, as we update our databases every day.

Go to all conjunctions

Associated space launch

Gonets- satellite were the civilian derivate of the military Strela-3 satellite system. The Gonets system was offered to support international health organizations to meet their global communications needs for the transfer of medical data and records to remote sites. Strela-3 was second generation of strategic store-dump military communications satellite. Development of this generation to replace the first generation Strela-1M and Strela-2M satellites began in 1973.

COSMOS 2337 was lifted into orbit during the mission ‘Tsiklon-3 | Strela-3 116 to 118 & Gonets 4 to 6’, on board a Tsiklon-3 space rocket.

The launch took place on Feb. 14, 1997, 3:47 a.m. from 32/1.

For more information about the launch, click the button.

Launch to space Tsiklon-3 | Strela-3 116 to 118 & Gonets 4 to 6
Tsiklon-3 | Strela-3 116 to 118 & Gonets 4 to 6

Agency: N/A

Status: Launch Successful

Launch date: Feb. 14, 1997, 3:47 a.m. UTC

Rocket: Tsiklon-3

Launch pad: 32/1

Location: Plesetsk Cosmodrome, Russian Federation

...

Latest news about this satellite

There are no fresh news available about this satellite. Check back as we update our databases every day.


Newsletter sign-up

Weekly statistics, charts and insights to help you stay on top of the space industry.